Time,TemperatureF,DewpointF,PressureIn,WindDirection,WindDirectionDegrees,WindSpeedMPH,WindSpeedGustMPH,Humidity,HourlyPrecipIn,Conditions,Clouds,dailyrainin,SolarRadiationWatts/m^2,SoftwareType,DateUTC
2013-04-07 00:02:00,62.4,50.5,29.86,South,188,0.0,0.0,65,0.00,,CLR,0.00,0.00,VWS V14.01,2013-04-07 05:02:00,
2013-04-07 00:07:00,62.2,50.3,29.86,South,188,0.0,0.0,65,0.00,,CLR,0.00,0.00,VWS V14.01,2013-04-07 05:07:00,
2013-04-07 00:12:00,62.0,50.5,29.86,South,188,0.0,0.0,66,0.00,,CLR,0.00,0.00,VWS V14.01,2013-04-07 05:12:00,
2013-04-07 00:17:00,61.9,50.4,29.86,South,188,0.0,0.0,66,0.00,,CLR,0.00,0.00,VWS V14.01,2013-04-07 05:17:00,
2013-04-07 00:22:00,61.7,50.6,29.86,South,188,0.0,0.0,67,0.00,,CLR,0.00,0.00,VWS V14.01,2013-04-07 05:22:00,
2013-04-07 00:27:00,61.7,50.6,29.86,South,188,0.0,0.0,67,0.00,,CLR,0.00,0.00,VWS V14.01,2013-04-07 05:27:00,
2013-04-07 00:32:00,61.6,51.0,29.86,South,188,0.0,0.0,68,0.00,,CLR,0.00,0.00,VWS V14.01,2013-04-07 05:32:00,
2013-04-07 00:37:00,61.4,50.8,29.86,South,188,0.0,0.0,68,0.00,,CLR,0.00,0.00,VWS V14.01,2013-04-07 05:37:00,
2013-04-07 00:42:00,61.1,50.5,29.86,South,188,0.0,0.0,68,0.00,,CLR,0.00,0.00,VWS V14.01,2013-04-07 05:42:00,
2013-04-07 00:47:00,60.9,50.7,29.86,South,188,0.0,0.0,69,0.00,,CLR,0.00,0.00,VWS V14.01,2013-04-07 05:47:00,
2013-04-07 00:52:00,60.8,50.6,29.86,South,188,0.0,0.0,69,0.00,,CLR,0.00,0.00,VWS V14.01,2013-04-07 05:52:00,
2013-04-07 00:57:00,60.6,50.4,29.86,South,188,0.0,0.0,69,0.00,,CLR,0.00,0.00,VWS V14.01,2013-04-07 05:57:00,
2013-04-07 01:02:00,60.5,50.3,29.86,South,188,0.0,0.0,69,0.00,,CLR,0.00,0.00,VWS V14.01,2013-04-07 06:02:00,
2013-04-07 01:07:00,60.3,50.1,29.86,South,188,0.0,0.0,69,0.00,,CLR,0.00,0.00,VWS V14.01,2013-04-07 06:07:00,
2013-04-07 01:12:00,60.1,49.9,29.86,South,188,0.0,0.0,69,0.00,,CLR,0.00,0.00,VWS V14.01,2013-04-07 06:12:00,
2013-04-07 01:17:00,59.8,49.6,29.86,South,188,0.0,0.0,69,0.00,,CLR,0.00,0.00,VWS V14.01,2013-04-07 06:17:00,
2013-04-07 01:22:00,59.7,49.5,29.86,South,188,0.0,0.0,69,0.00,,CLR,0.00,0.00,VWS V14.01,2013-04-07 06:22:00,
2013-04-07 01:27:00,59.5,49.3,29.86,South,188,0.0,0.0,69,0.00,,CLR,0.00,0.00,VWS V14.01,2013-04-07 06:27:00,
2013-04-07 01:32:00,59.4,49.2,29.86,South,188,0.0,0.0,69,0.00,,CLR,0.00,0.00,VWS V14.01,2013-04-07 06:32:00,
2013-04-07 01:37:00,59.0,49.2,29.86,South,188,0.0,0.0,70,0.00,,CLR,0.00,0.00,VWS V14.01,2013-04-07 06:37:00,
2013-04-07 01:42:00,58.9,49.2,29.86,South,188,0.0,0.0,70,0.00,,CLR,0.00,0.00,VWS V14.01,2013-04-07 06:42:00,
2013-04-07 01:47:00,58.6,48.9,29.86,South,188,0.0,0.0,70,0.00,,CLR,0.00,0.00,VWS V14.01,2013-04-07 06:47:00,
2013-04-07 01:52:00,58.4,48.7,29.86,South,188,0.0,0.0,70,0.00,,CLR,0.00,0.00,VWS V14.01,2013-04-07 06:52:00,
2013-04-07 01:57:00,58.1,48.4,29.86,South,188,0.0,0.0,70,0.00,,CLR,0.00,0.00,VWS V14.01,2013-04-07 06:57:00,
2013-04-07 02:02:00,58.0,48.3,29.86,South,188,0.0,0.0,70,0.00,,CLR,0.00,0.00,VWS V14.01,2013-04-07 07:02:00,
2013-04-07 02:07:00,57.7,48.4,29.86,South,188,0.0,0.0,71,0.00,,CLR,0.00,0.00,VWS V14.01,2013-04-07 07:07:00,
2013-04-07 02:12:00,57.5,48.2,29.86,South,188,0.0,0.0,71,0.00,,CLR,0.00,0.00,VWS V14.01,2013-04-07 07:12:00,
2013-04-07 02:17:00,57.2,47.9,29.86,South,188,0.0,0.0,71,0.00,,CLR,0.00,0.00,VWS V14.01,2013-04-07 07:17:00,
2013-04-07 02:22:00,57.1,48.2,29.86,South,188,0.0,0.0,72,0.00,,CLR,0.00,0.00,VWS V14.01,2013-04-07 07:22:00,
2013-04-07 02:27:00,56.8,48.2,29.86,South,188,0.0,0.0,73,0.00,,CLR,0.00,0.00,VWS V14.01,2013-04-07 07:27:00,
2013-04-07 02:32:00,56.6,48.1,29.86,South,188,0.0,0.0,73,0.00,,CLR,0.00,0.00,VWS V14.01,2013-04-07 07:32:00,
2013-04-07 02:37:00,56.3,47.8,29.86,South,188,0.0,0.0,73,0.00,,CLR,0.00,0.00,VWS V14.01,2013-04-07 07:37:00,
2013-04-07 02:42:00,56.1,47.6,29.86,South,188,0.0,0.0,73,0.00,,CLR,0.00,0.00,VWS V14.01,2013-04-07 07:42:00,
2013-04-07 02:47:00,56.0,47.8,29.86,South,188,0.0,0.0,74,0.00,,CLR,0.00,0.00,VWS V14.01,2013-04-07 07:47:00,
2013-04-07 02:52:00,55.8,48.0,29.86,South,188,0.0,0.0,75,0.00,,CLR,0.00,0.00,VWS V14.01,2013-04-07 07:52:00,
2013-04-07 02:57:00,55.7,48.3,29.86,South,188,0.0,0.0,76,0.00,,CLR,0.00,0.00,VWS V14.01,2013-04-07 07:57:00,
2013-04-07 03:02:00,55.5,48.1,29.86,South,188,0.0,0.0,76,0.00,,CLR,0.00,0.00,VWS V14.01,2013-04-07 08:02:00,
2013-04-07 03:07:00,55.4,48.0,29.86,South,188,0.0,0.0,76,0.00,,CLR,0.00,0.00,VWS V14.01,2013-04-07 08:07:00,
2013-04-07 03:12:00,55.1,47.7,29.86,South,188,0.0,0.0,76,0.00,,CLR,0.00,0.00,VWS V14.01,2013-04-07 08:12:00,
2013-04-07 03:17:00,55.0,47.6,29.86,South,188,0.0,0.0,76,0.00,,CLR,0.00,0.00,VWS V14.01,2013-04-07 08:17:00,
2013-04-07 03:22:00,54.8,47.7,29.86,South,188,0.0,0.0,77,0.00,,CLR,0.00,0.00,VWS V14.01,2013-04-07 08:22:00,
2013-04-07 03:27:00,54.7,47.6,29.86,South,188,0.0,0.0,77,0.00,,CLR,0.00,0.00,VWS V14.01,2013-04-07 08:27:00,
2013-04-07 03:32:00,54.5,47.5,29.85,South,188,0.0,0.0,77,0.00,,CLR,0.00,0.00,VWS V14.01,2013-04-07 08:32:00,
2013-04-07 03:37:00,54.4,47.3,29.85,South,188,0.0,0.0,77,0.00,,CLR,0.00,0.00,VWS V14.01,2013-04-07 08:37:00,
2013-04-07 03:42:00,54.2,47.2,29.85,South,188,0.0,0.0,77,0.00,,CLR,0.00,0.00,VWS V14.01,2013-04-07 08:42:00,
2013-04-07 03:47:00,54.1,47.1,29.86,South,188,0.0,0.0,77,0.00,,CLR,0.00,0.00,VWS V14.01,2013-04-07 08:47:00,
2013-04-07 03:52:00,53.9,46.9,29.86,South,188,0.0,0.0,77,0.00,,CLR,0.00,0.00,VWS V14.01,2013-04-07 08:52:00,
2013-04-07 03:57:00,53.8,46.8,29.86,South,188,0.0,0.0,77,0.00,,CLR,0.00,0.00,VWS V14.01,2013-04-07 08:57:00,
2013-04-07 04:02:00,53.6,46.6,29.85,South,188,0.0,0.0,77,0.00,,CLR,0.00,0.00,VWS V14.01,2013-04-07 09:02:00,
2013-04-07 04:07:00,53.5,46.8,29.85,South,188,0.0,0.0,78,0.00,,CLR,0.00,0.00,VWS V14.01,2013-04-07 09:07:00,
2013-04-07 04:12:00,53.5,47.2,29.85,South,188,0.0,0.0,79,0.00,,CLR,0.00,0.00,VWS V14.01,2013-04-07 09:12:00,
2013-04-07 04:17:00,53.3,47.0,29.85,South,188,0.0,0.0,79,0.00,,CLR,0.00,0.00,VWS V14.01,2013-04-07 09:17:00,
2013-04-07 04:23:00,53.3,47.0,29.85,South,188,0.0,0.0,79,0.00,,CLR,0.00,0.00,VWS V14.01,2013-04-07 09:23:00,
2013-04-07 04:28:00,53.2,47.2,29.85,South,188,0.0,0.0,80,0.00,,CLR,0.00,0.00,VWS V14.01,2013-04-07 09:28:00,
2013-04-07 04:33:00,53.2,47.2,29.85,South,188,0.0,0.0,80,0.00,,CLR,0.00,0.00,VWS V14.01,2013-04-07 09:33:00,
2013-04-07 04:38:00,53.0,47.0,29.85,South,188,0.0,0.0,80,0.00,,CLR,0.00,0.00,VWS V14.01,2013-04-07 09:38:00,
2013-04-07 04:43:00,53.0,47.0,29.85,South,188,0.0,0.0,80,0.00,,CLR,0.00,0.00,VWS V14.01,2013-04-07 09:43:00,
2013-04-07 04:48:00,52.9,46.9,29.85,South,188,0.0,0.0,80,0.00,,CLR,0.00,0.00,VWS V14.01,2013-04-07 09:48:00,
2013-04-07 04:53:00,52.7,46.7,29.85,South,188,0.0,0.0,80,0.00,,CLR,0.00,0.00,VWS V14.01,2013-04-07 09:53:00,
2013-04-07 04:58:00,52.7,46.7,29.85,South,188,0.0,0.0,80,0.00,,CLR,0.00,0.00,VWS V14.01,2013-04-07 09:58:00,
2013-04-07 05:03:00,52.6,46.6,29.85,South,188,0.0,0.0,80,0.00,,CLR,0.00,0.00,VWS V14.01,2013-04-07 10:03:00,
2013-04-07 05:08:00,52.4,46.4,29.85,South,188,0.0,0.0,80,0.00,,CLR,0.00,0.00,VWS V14.01,2013-04-07 10:08:00,
2013-04-07 05:13:00,52.3,46.3,29.85,South,188,0.0,0.0,80,0.00,,CLR,0.00,0.00,VWS V14.01,2013-04-07 10:13:00,
2013-04-07 05:18:00,52.1,46.1,29.85,South,188,0.0,0.0,80,0.00,,CLR,0.00,0.00,VWS V14.01,2013-04-07 10:18:00,
2013-04-07 05:23:00,52.1,46.1,29.85,South,188,0.0,0.0,80,0.00,,CLR,0.00,0.00,VWS V14.01,2013-04-07 10:23:00,
2013-04-07 05:28:00,52.0,46.0,29.85,South,188,0.0,0.0,80,0.00,,CLR,0.00,0.00,VWS V14.01,2013-04-07 10:28:00,
2013-04-07 05:33:00,52.0,46.4,29.84,South,188,0.0,0.0,81,0.00,,CLR,0.00,0.00,VWS V14.01,2013-04-07 10:33:00,
2013-04-07 05:38:00,51.8,46.2,29.84,South,188,0.0,0.0,81,0.00,,CLR,0.00,0.00,VWS V14.01,2013-04-07 10:38:00,
2013-04-07 05:42:00,51.7,46.1,29.84,South,188,0.0,0.0,81,0.00,,CLR,0.00,0.00,VWS V14.01,2013-04-07 10:42:00,
2013-04-07 05:48:00,51.6,46.0,29.85,South,188,0.0,0.0,81,0.00,,CLR,0.00,0.00,VWS V14.01,2013-04-07 10:48:00,
2013-04-07 05:52:00,51.6,46.0,29.85,South,188,0.0,0.0,81,0.00,,CLR,0.00,0.00,VWS V14.01,2013-04-07 10:52:00,
2013-04-07 05:57:00,51.4,45.8,29.85,South,188,0.0,0.0,81,0.00,,CLR,0.00,0.00,VWS V14.01,2013-04-07 10:57:00,
2013-04-07 06:02:00,51.4,45.8,29.85,South,188,0.0,0.0,81,0.00,,CLR,0.00,0.00,VWS V14.01,2013-04-07 11:02:00,
2013-04-07 06:07:00,51.3,45.7,29.85,South,188,0.0,0.0,81,0.00,,CLR,0.00,0.00,VWS V14.01,2013-04-07 11:07:00,
2013-04-07 06:13:00,51.3,45.7,29.85,South,188,0.0,0.0,81,0.00,,CLR,0.00,0.00,VWS V14.01,2013-04-07 11:13:00,
2013-04-07 06:18:00,51.3,46.0,29.85,South,188,0.0,0.0,82,0.00,,CLR,0.00,0.00,VWS V14.01,2013-04-07 11:18:00,
2013-04-07 06:22:00,51.3,46.0,29.85,South,188,0.0,0.0,82,0.00,,CLR,0.00,0.00,VWS V14.01,2013-04-07 11:22:00,
2013-04-07 06:27:00,51.3,46.3,29.85,South,188,0.0,0.0,83,0.00,,CLR,0.00,0.00,VWS V14.01,2013-04-07 11:27:00,
2013-04-07 06:32:00,51.3,46.6,29.85,South,188,0.0,0.0,84,0.00,,CLR,0.00,0.00,VWS V14.01,2013-04-07 11:32:00,
2013-04-07 06:37:00,51.3,47.0,29.85,South,188,0.0,0.0,85,0.00,,CLR,0.00,0.00,VWS V14.01,2013-04-07 11:37:00,
2013-04-07 06:42:00,51.3,47.0,29.85,South,188,0.0,0.0,85,0.00,,CLR,0.00,0.00,VWS V14.01,2013-04-07 11:42:00,
2013-04-07 06:47:00,51.4,47.0,29.86,South,188,0.0,0.0,85,0.00,,CLR,0.00,0.00,VWS V14.01,2013-04-07 11:47:00,
2013-04-07 06:52:00,51.4,47.4,29.86,South,188,0.0,0.0,86,0.00,,CLR,0.00,0.00,VWS V14.01,2013-04-07 11:52:00,
2013-04-07 06:57:00,51.6,47.9,29.86,South,188,0.0,0.0,87,0.00,,CLR,0.00,5.75,VWS V14.01,2013-04-07 11:57:00,
2013-04-07 07:02:00,51.7,48.3,29.86,South,188,0.0,0.0,88,0.00,,,0.00,10.35,VWS V14.01,2013-04-07 12:02:00,
2013-04-07 07:07:00,51.8,48.4,29.86,South,188,0.0,0.0,88,0.00,,,0.00,13.80,VWS V14.01,2013-04-07 12:07:00,
2013-04-07 07:12:00,51.8,48.4,29.86,South,188,0.0,0.0,88,0.00,,,0.00,21.85,VWS V14.01,2013-04-07 12:12:00,
2013-04-07 07:17:00,51.8,48.7,29.86,South,188,0.0,0.0,89,0.00,,,0.00,37.95,VWS V14.01,2013-04-07 12:17:00,
2013-04-07 07:22:00,52.0,48.9,29.86,South,188,0.0,0.0,89,0.00,,,0.00,50.60,VWS V14.01,2013-04-07 12:22:00,
2013-04-07 07:27:00,52.0,48.9,29.86,South,188,0.0,0.0,89,0.00,,,0.00,48.30,VWS V14.01,2013-04-07 12:27:00,
2013-04-07 07:32:00,52.1,49.0,29.87,South,188,0.0,0.0,89,0.00,,,0.00,40.25,VWS V14.01,2013-04-07 12:32:00,
2013-04-07 07:37:00,52.6,49.5,29.87,South,188,0.0,0.0,89,0.00,,,0.00,36.80,VWS V14.01,2013-04-07 12:37:00,
2013-04-07 07:42:00,53.0,50.2,29.87,South,188,0.0,0.0,90,0.00,,,0.00,34.50,VWS V14.01,2013-04-07 12:42:00,
2013-04-07 07:48:00,53.5,50.6,29.88,South,182,1.0,6.0,90,0.00,,,0.00,37.95,VWS V14.01,2013-04-07 12:48:00,
2013-04-07 07:53:00,54.2,51.6,29.88,South,182,3.0,4.0,91,0.00,,,0.00,42.55,VWS V14.01,2013-04-07 12:53:00,
2013-04-07 07:58:00,54.5,51.9,29.88,South,182,0.0,0.0,91,0.00,,,0.00,80.50,VWS V14.01,2013-04-07 12:58:00,
2013-04-07 08:02:00,56.0,53.4,29.87,South,182,0.0,0.0,91,0.00,,,0.00,143.75,VWS V14.01,2013-04-07 13:02:00,
2013-04-07 08:08:00,56.9,54.0,29.87,South,182,0.0,0.0,90,0.00,,,0.00,149.50,VWS V14.01,2013-04-07 13:08:00,
2013-04-07 08:13:00,57.8,54.6,29.87,South,182,2.0,3.0,89,0.00,,,0.00,238.05,VWS V14.01,2013-04-07 13:13:00,
2013-04-07 08:18:00,58.9,55.4,29.88,South,182,0.0,0.0,88,0.00,,,0.00,315.10,VWS V14.01,2013-04-07 13:18:00,
2013-04-07 08:23:00,60.0,55.8,29.88,South,182,0.0,0.0,86,0.00,,,0.00,335.80,VWS V14.01,2013-04-07 13:23:00,
2013-04-07 08:28:00,60.6,55.4,29.88,South,181,1.0,7.0,83,0.00,,,0.00,210.45,VWS V14.01,2013-04-07 13:28:00,
2013-04-07 08:33:00,60.6,55.4,29.88,South,173,8.0,9.0,83,0.00,,,0.00,127.65,VWS V14.01,2013-04-07 13:33:00,
2013-04-07 08:38:00,60.5,55.3,29.88,South,178,11.0,11.0,83,0.00,,,0.00,109.25,VWS V14.01,2013-04-07 13:38:00,
2013-04-07 08:43:00,60.5,55.3,29.88,South,188,9.0,12.0,83,0.00,,,0.00,112.70,VWS V14.01,2013-04-07 13:43:00,
2013-04-07 08:48:00,60.5,55.3,29.88,South,175,7.0,10.0,83,0.00,,,0.00,170.20,VWS V14.01,2013-04-07 13:48:00,
2013-04-07 08:53:00,61.2,56.0,29.88,SSE,161,5.0,7.0,83,0.00,,,0.00,386.40,VWS V14.01,2013-04-07 13:53:00,
2013-04-07 08:58:00,62.2,56.3,29.88,South,170,6.0,10.0,81,0.00,,,0.00,416.30,VWS V14.01,2013-04-07 13:58:00,
2013-04-07 09:03:00,62.8,56.2,29.88,SSW,212,4.0,5.0,79,0.00,,CLR,0.00,244.95,VWS V14.01,2013-04-07 14:03:00,
2013-04-07 09:08:00,62.7,55.8,29.88,SSW,208,5.0,12.0,78,0.00,,CLR,0.00,410.55,VWS V14.01,2013-04-07 14:08:00,
2013-04-07 09:13:00,63.2,55.9,29.88,South,171,5.0,14.0,77,0.00,,CLR,0.00,437.00,VWS V14.01,2013-04-07 14:13:00,
2013-04-07 09:18:00,63.0,55.7,29.87,South,189,0.0,7.0,77,0.00,,CLR,0.00,277.15,VWS V14.01,2013-04-07 14:18:00,
2013-04-07 09:23:00,63.0,56.0,29.87,SSW,194,0.0,10.0,78,0.00,,CLR,0.00,354.20,VWS V14.01,2013-04-07 14:23:00,
2013-04-07 09:28:00,63.7,56.4,29.87,South,186,6.0,9.0,77,0.00,,CLR,0.00,396.75,VWS V14.01,2013-04-07 14:28:00,
2013-04-07 09:33:00,64.3,56.2,29.87,SSE,167,4.0,11.0,75,0.00,,CLR,0.00,466.90,VWS V14.01,2013-04-07 14:33:00,
2013-04-07 09:38:00,64.5,56.4,29.87,SSE,165,9.0,11.0,75,0.00,,CLR,0.00,440.45,VWS V14.01,2013-04-07 14:38:00,
2013-04-07 09:43:00,64.5,56.4,29.87,SSE,162,9.0,10.0,75,0.00,,CLR,0.00,346.15,VWS V14.01,2013-04-07 14:43:00,
2013-04-07 09:48:00,64.3,56.2,29.87,SSW,192,17.0,17.0,75,0.00,,CLR,0.00,355.35,VWS V14.01,2013-04-07 14:48:00,
2013-04-07 09:53:00,64.3,56.2,29.87,South,186,4.0,14.0,75,0.00,,CLR,0.00,450.80,VWS V14.01,2013-04-07 14:53:00,
2013-04-07 09:58:00,65.1,57.0,29.87,SSW,206,0.0,12.0,75,0.00,,CLR,0.00,426.65,VWS V14.01,2013-04-07 14:58:00,
2013-04-07 10:03:00,65.4,56.5,29.86,SSW,196,1.0,15.0,73,0.00,,CLR,0.00,408.25,VWS V14.01,2013-04-07 15:03:00,
2013-04-07 10:08:00,64.8,56.3,29.86,SSE,154,7.0,15.0,74,0.00,,CLR,0.00,365.70,VWS V14.01,2013-04-07 15:08:00,
2013-04-07 10:13:00,64.9,56.8,29.86,SSE,160,9.0,9.0,75,0.00,,CLR,0.00,405.95,VWS V14.01,2013-04-07 15:13:00,
2013-04-07 10:18:00,65.1,56.6,29.88,SSE,161,9.0,18.0,74,0.00,,CLR,0.00,414.00,VWS V14.01,2013-04-07 15:18:00,
2013-04-07 10:23:00,65.9,57.4,29.88,South,171,5.0,15.0,74,0.00,,CLR,0.00,806.15,VWS V14.01,2013-04-07 15:23:00,
2013-04-07 10:28:00,66.1,56.8,29.88,South,170,4.0,12.0,72,0.00,,CLR,0.00,274.85,VWS V14.01,2013-04-07 15:28:00,
2013-04-07 10:33:00,65.9,57.0,29.88,South,186,0.0,12.0,73,0.00,,CLR,0.00,349.60,VWS V14.01,2013-04-07 15:33:00,
2013-04-07 10:38:00,65.8,56.9,29.88,SSW,210,0.0,13.0,73,0.00,,CLR,0.00,293.25,VWS V14.01,2013-04-07 15:38:00,
2013-04-07 10:43:00,65.8,56.9,29.88,South,178,7.0,17.0,73,0.00,,CLR,0.00,307.05,VWS V14.01,2013-04-07 15:43:00,
2013-04-07 10:48:00,65.4,56.5,29.88,SSW,200,8.0,18.0,73,0.00,,CLR,0.00,280.60,VWS V14.01,2013-04-07 15:48:00,
2013-04-07 10:53:00,65.1,56.6,29.88,SSW,196,6.0,16.0,74,0.00,,CLR,0.00,240.35,VWS V14.01,2013-04-07 15:53:00,
2013-04-07 10:58:00,64.9,56.8,29.88,South,177,14.0,16.0,75,0.00,,CLR,0.00,263.35,VWS V14.01,2013-04-07 15:58:00,
2013-04-07 11:03:00,64.6,56.5,29.88,South,181,4.0,12.0,75,0.00,,BKN017,0.00,287.50,VWS V14.01,2013-04-07 16:03:00,
2013-04-07 11:08:00,64.5,56.4,29.88,SSW,194,11.0,17.0,75,0.00,,BKN017,0.00,347.30,VWS V14.01,2013-04-07 16:08:00,
2013-04-07 11:13:00,64.5,56.8,29.88,SSW,194,9.0,14.0,76,0.00,,BKN017,0.00,285.20,VWS V14.01,2013-04-07 16:13:00,
2013-04-07 11:18:00,64.3,56.6,29.88,South,177,2.0,15.0,76,0.00,,BKN017,0.00,238.05,VWS V14.01,2013-04-07 16:18:00,
2013-04-07 11:23:00,64.0,56.7,29.88,SSE,163,16.0,16.0,77,0.00,,BKN017,0.00,221.95,VWS V14.01,2013-04-07 16:23:00,
2013-04-07 11:28:00,64.0,56.7,29.88,SSW,196,4.0,11.0,77,0.00,,BKN017,0.00,213.90,VWS V14.01,2013-04-07 16:28:00,
2013-04-07 11:33:00,63.8,56.5,29.88,South,180,5.0,11.0,77,0.00,,BKN017,0.00,234.60,VWS V14.01,2013-04-07 16:33:00,
2013-04-07 11:38:00,64.0,56.7,29.88,South,180,7.0,17.0,77,0.00,,BKN017,0.00,224.25,VWS V14.01,2013-04-07 16:38:00,
2013-04-07 11:43:00,63.8,56.5,29.88,South,171,6.0,13.0,77,0.00,,BKN017,0.00,194.35,VWS V14.01,2013-04-07 16:43:00,
2013-04-07 11:48:00,63.8,56.5,29.88,SSW,196,0.0,11.0,77,0.00,,BKN017,0.00,197.80,VWS V14.01,2013-04-07 16:48:00,
2013-04-07 11:53:00,64.0,56.7,29.88,SSE,159,6.0,9.0,77,0.00,,BKN017,0.00,210.45,VWS V14.01,2013-04-07 16:53:00,
2013-04-07 11:58:00,63.8,56.5,29.88,SSW,200,8.0,12.0,77,0.00,,BKN017,0.00,197.80,VWS V14.01,2013-04-07 16:58:00,
2013-04-07 12:03:00,63.8,56.5,29.88,SSE,148,4.0,15.0,77,0.00,,OVC019,0.00,250.70,VWS V14.01,2013-04-07 17:03:00,
2013-04-07 12:08:00,64.0,56.7,29.88,South,188,11.0,17.0,77,0.00,,OVC019,0.00,246.10,VWS V14.01,2013-04-07 17:08:00,
2013-04-07 12:13:00,64.1,56.8,29.88,South,190,10.0,16.0,77,0.00,,OVC019,0.00,303.60,VWS V14.01,2013-04-07 17:13:00,
2013-04-07 12:18:00,64.6,57.2,29.86,South,187,4.0,12.0,77,0.00,,OVC019,0.00,341.55,VWS V14.01,2013-04-07 17:18:00,
2013-04-07 12:23:00,64.6,56.9,29.86,SSE,167,1.0,11.0,76,0.00,,OVC019,0.00,323.15,VWS V14.01,2013-04-07 17:23:00,
2013-04-07 12:28:00,64.9,57.2,29.86,South,169,0.0,11.0,76,0.00,,OVC019,0.00,287.50,VWS V14.01,2013-04-07 17:28:00,
2013-04-07 12:33:00,65.1,57.0,29.86,South,169,2.0,11.0,75,0.00,,OVC019,0.00,208.15,VWS V14.01,2013-04-07 17:33:00,
2013-04-07 12:38:00,64.8,56.7,29.86,SSE,160,9.0,20.0,75,0.00,,OVC019,0.00,253.00,VWS V14.01,2013-04-07 17:38:00,
2013-04-07 12:43:00,64.8,56.7,29.86,SSE,158,4.0,11.0,75,0.00,,OVC019,0.00,346.15,VWS V14.01,2013-04-07 17:43:00,
2013-04-07 12:48:00,65.1,57.0,29.85,SSE,159,14.0,14.0,75,0.00,,OVC019,0.00,339.25,VWS V14.01,2013-04-07 17:48:00,
2013-04-07 12:53:00,65.3,57.2,29.85,SSE,160,11.0,15.0,75,0.00,,OVC019,0.00,355.35,VWS V14.01,2013-04-07 17:53:00,
2013-04-07 12:58:00,65.3,57.2,29.85,South,184,10.0,20.0,75,0.00,,OVC019,0.00,296.70,VWS V14.01,2013-04-07 17:58:00,
2013-04-07 13:03:00,65.1,57.0,29.84,South,176,9.0,16.0,75,0.00,,OVC019,0.00,309.35,VWS V14.01,2013-04-07 18:03:00,
2013-04-07 13:08:00,65.1,57.0,29.84,SSW,193,3.0,15.0,75,0.00,,OVC019,0.00,323.15,VWS V14.01,2013-04-07 18:08:00,
2013-04-07 13:13:00,65.3,57.2,29.84,SSE,166,7.0,14.0,75,0.00,,OVC019,0.00,277.15,VWS V14.01,2013-04-07 18:13:00,
2013-04-07 13:18:00,64.9,57.2,29.83,SE,146,12.0,17.0,76,0.00,,OVC019,0.00,261.05,VWS V14.01,2013-04-07 18:18:00,
2013-04-07 13:23:00,64.9,57.2,29.83,South,179,13.0,21.0,76,0.00,,OVC019,0.00,253.00,VWS V14.01,2013-04-07 18:23:00,
2013-04-07 13:28:00,64.6,56.9,29.83,SSE,160,11.0,17.0,76,0.00,,OVC019,0.00,269.10,VWS V14.01,2013-04-07 18:28:00,
2013-04-07 13:33:00,64.8,57.1,29.83,SSE,165,12.0,19.0,76,0.00,,OVC019,0.00,218.50,VWS V14.01,2013-04-07 18:33:00,
2013-04-07 13:38:00,64.6,56.9,29.83,South,170,14.0,18.0,76,0.00,,OVC019,0.00,196.65,VWS V14.01,2013-04-07 18:38:00,
2013-04-07 13:43:00,64.6,57.2,29.83,South,169,13.0,17.0,77,0.00,,OVC019,0.00,205.85,VWS V14.01,2013-04-07 18:43:00,
2013-04-07 13:48:00,64.6,57.2,29.81,SSE,164,7.0,20.0,77,0.00,,OVC019,0.00,238.05,VWS V14.01,2013-04-07 18:48:00,
2013-04-07 13:53:00,64.8,57.4,29.81,SSE,154,0.0,15.0,77,0.00,,OVC019,0.00,263.35,VWS V14.01,2013-04-07 18:53:00,
2013-04-07 13:58:00,64.9,57.2,29.81,SSE,148,0.0,12.0,76,0.00,,OVC019,0.00,254.15,VWS V14.01,2013-04-07 18:58:00,
2013-04-07 14:03:00,64.9,57.2,29.80,South,169,3.0,17.0,76,0.00,,OVC019,0.00,238.05,VWS V14.01,2013-04-07 19:03:00,
2013-04-07 14:08:00,64.9,57.2,29.80,South,178,11.0,18.0,76,0.00,,OVC019,0.00,312.80,VWS V14.01,2013-04-07 19:08:00,
2013-04-07 14:13:00,65.1,57.0,29.80,South,173,7.0,19.0,75,0.00,,OVC019,0.00,301.30,VWS V14.01,2013-04-07 19:13:00,
2013-04-07 14:18:00,65.1,57.0,29.80,South,174,14.0,19.0,75,0.00,,OVC019,0.00,218.50,VWS V14.01,2013-04-07 19:18:00,
2013-04-07 14:23:00,65.1,57.0,29.80,South,170,4.0,21.0,75,0.00,,OVC019,0.00,263.35,VWS V14.01,2013-04-07 19:23:00,
2013-04-07 14:28:00,65.3,57.2,29.80,South,175,17.0,19.0,75,0.00,,OVC019,0.00,216.20,VWS V14.01,2013-04-07 19:28:00,
2013-04-07 14:33:00,65.1,57.0,29.79,SSE,153,5.0,24.0,75,0.00,,OVC019,0.00,218.50,VWS V14.01,2013-04-07 19:33:00,
2013-04-07 14:38:00,64.9,56.8,29.79,South,184,9.0,27.0,75,0.00,,OVC019,0.00,200.10,VWS V14.01,2013-04-07 19:38:00,
2013-04-07 14:43:00,64.9,56.8,29.79,SE,144,9.0,20.0,75,0.00,,OVC019,0.00,226.55,VWS V14.01,2013-04-07 19:43:00,
2013-04-07 14:48:00,64.9,57.2,29.78,South,175,9.0,12.0,76,0.00,,OVC019,0.00,240.35,VWS V14.01,2013-04-07 19:48:00,
2013-04-07 14:53:00,65.1,57.0,29.78,South,182,18.0,20.0,75,0.00,,OVC019,0.00,236.90,VWS V14.01,2013-04-07 19:53:00,
2013-04-07 14:58:00,64.9,57.2,29.78,South,171,9.0,17.0,76,0.00,,OVC019,0.00,250.70,VWS V14.01,2013-04-07 19:58:00,
2013-04-07 15:03:00,64.9,56.8,29.77,SSE,155,13.0,20.0,75,0.00,,OVC017,0.00,269.10,VWS V14.01,2013-04-07 20:03:00,
2013-04-07 15:08:00,65.3,57.5,29.77,South,174,0.0,18.0,76,0.00,,OVC017,0.00,272.55,VWS V14.01,2013-04-07 20:08:00,
2013-04-07 15:13:00,65.6,57.5,29.77,South,191,18.0,18.0,75,0.00,,OVC017,0.00,272.55,VWS V14.01,2013-04-07 20:13:00,
2013-04-07 15:18:00,65.6,57.1,29.77,South,189,23.0,23.0,74,0.00,,OVC017,0.00,271.40,VWS V14.01,2013-04-07 20:18:00,
2013-04-07 15:23:00,65.8,57.3,29.77,South,169,22.0,23.0,74,0.00,,OVC017,0.00,323.15,VWS V14.01,2013-04-07 20:23:00,
2013-04-07 15:28:00,65.6,57.5,29.77,SSW,195,9.0,21.0,75,0.00,,OVC017,0.00,216.20,VWS V14.01,2013-04-07 20:28:00,
2013-04-07 15:33:00,65.4,57.3,29.76,SSE,157,10.0,20.0,75,0.00,,OVC017,0.00,187.45,VWS V14.01,2013-04-07 20:33:00,
2013-04-07 15:38:00,65.3,57.2,29.76,South,186,17.0,18.0,75,0.00,,OVC017,0.00,165.60,VWS V14.01,2013-04-07 20:38:00,
2013-04-07 15:43:00,65.3,57.2,29.76,SSE,163,0.0,17.0,75,0.00,,OVC017,0.00,143.75,VWS V14.01,2013-04-07 20:43:00,
2013-04-07 15:48:00,65.1,57.4,29.75,South,178,11.0,21.0,76,0.00,,OVC017,0.00,139.15,VWS V14.01,2013-04-07 20:48:00,
2013-04-07 15:53:00,64.8,57.1,29.75,SSE,151,11.0,27.0,76,0.00,,OVC017,0.00,149.50,VWS V14.01,2013-04-07 20:53:00,
2013-04-07 15:58:00,64.8,57.4,29.75,South,178,11.0,22.0,77,0.00,,OVC017,0.00,135.70,VWS V14.01,2013-04-07 20:58:00,
2013-04-07 16:03:00,64.6,57.2,29.75,SSW,211,13.0,24.0,77,0.00,,OVC017,0.00,117.30,VWS V14.01,2013-04-07 21:03:00,
2013-04-07 16:08:00,64.6,57.2,29.75,South,175,12.0,16.0,77,0.00,,OVC017,0.00,143.75,VWS V14.01,2013-04-07 21:08:00,
2013-04-07 16:13:00,64.6,57.2,29.75,South,185,10.0,20.0,77,0.00,,OVC017,0.00,109.25,VWS V14.01,2013-04-07 21:13:00,
2013-04-07 16:18:00,64.6,57.2,29.75,SSE,165,8.0,18.0,77,0.00,,OVC017,0.00,109.25,VWS V14.01,2013-04-07 21:18:00,
2013-04-07 16:23:00,64.5,57.1,29.75,SSE,161,13.0,18.0,77,0.00,,OVC017,0.00,95.45,VWS V14.01,2013-04-07 21:23:00,
2013-04-07 16:28:00,64.5,57.5,29.75,South,175,10.0,21.0,78,0.00,,OVC017,0.00,87.40,VWS V14.01,2013-04-07 21:28:00,
2013-04-07 16:33:00,64.3,57.3,29.74,South,170,9.0,15.0,78,0.00,,OVC019,0.00,131.10,VWS V14.01,2013-04-07 21:33:00,
2013-04-07 16:38:00,64.3,57.3,29.74,South,175,11.0,17.0,78,0.00,,OVC019,0.00,106.95,VWS V14.01,2013-04-07 21:38:00,
2013-04-07 16:43:00,64.3,57.3,29.74,South,179,7.0,23.0,78,0.00,,OVC019,0.00,82.80,VWS V14.01,2013-04-07 21:43:00,
2013-04-07 16:48:00,64.1,57.5,29.74,SSE,163,9.0,20.0,79,0.00,,OVC019,0.00,74.75,VWS V14.01,2013-04-07 21:48:00,
2013-04-07 16:53:00,64.1,57.5,29.74,South,189,7.0,21.0,79,0.00,,OVC019,0.00,72.45,VWS V14.01,2013-04-07 21:53:00,
2013-04-07 16:59:00,64.1,57.5,29.74,SSE,154,20.0,22.0,79,0.00,,OVC019,0.00,72.45,VWS V14.01,2013-04-07 21:59:00,
2013-04-07 17:04:00,64.0,57.4,29.74,South,173,0.0,20.0,79,0.00,,OVC019,0.00,82.80,VWS V14.01,2013-04-07 22:04:00,
2013-04-07 17:09:00,64.0,57.4,29.74,South,169,2.0,17.0,79,0.00,,OVC019,0.00,90.85,VWS V14.01,2013-04-07 22:09:00,
2013-04-07 17:14:00,64.1,57.5,29.74,SSE,166,19.0,19.0,79,0.00,,OVC019,0.00,85.10,VWS V14.01,2013-04-07 22:14:00,
2013-04-07 17:19:00,64.1,57.5,29.73,South,173,8.0,20.0,79,0.00,,OVC019,0.00,79.35,VWS V14.01,2013-04-07 22:19:00,
2013-04-07 17:24:00,64.1,57.5,29.73,SSE,153,11.0,21.0,79,0.00,,OVC019,0.00,93.15,VWS V14.01,2013-04-07 22:24:00,
2013-04-07 17:29:00,64.1,57.5,29.73,SSW,192,6.0,24.0,79,0.00,,OVC019,0.00,90.85,VWS V14.01,2013-04-07 22:29:00,
2013-04-07 17:34:00,64.3,57.7,29.73,SSE,149,11.0,19.0,79,0.00,,OVC019,0.00,98.90,VWS V14.01,2013-04-07 22:34:00,
2013-04-07 17:39:00,64.3,57.7,29.73,South,179,6.0,19.0,79,0.00,,OVC019,0.00,60.95,VWS V14.01,2013-04-07 22:39:00,
2013-04-07 17:44:00,64.5,57.8,29.72,South,183,9.0,17.0,79,0.00,,OVC019,0.00,58.65,VWS V14.01,2013-04-07 22:44:00,
2013-04-07 17:49:00,64.5,57.8,29.72,South,173,0.0,17.0,79,0.00,,OVC019,0.00,48.30,VWS V14.01,2013-04-07 22:49:00,
2013-04-07 17:54:00,64.5,57.8,29.72,SSE,161,16.0,23.0,79,0.00,,OVC019,0.00,52.90,VWS V14.01,2013-04-07 22:54:00,
2013-04-07 17:59:00,64.3,57.7,29.72,South,181,7.0,22.0,79,0.00,,OVC019,0.00,50.60,VWS V14.01,2013-04-07 22:59:00,
2013-04-07 18:04:00,64.3,57.7,29.72,South,190,13.0,19.0,79,0.00,,OVC019,0.00,46.00,VWS V14.01,2013-04-07 23:04:00,
2013-04-07 18:09:00,64.3,57.7,29.72,SSE,168,12.0,18.0,79,0.00,,OVC019,0.00,40.25,VWS V14.01,2013-04-07 23:09:00,
2013-04-07 18:14:00,64.3,57.7,29.72,South,171,15.0,20.0,79,0.00,,OVC019,0.00,44.85,VWS V14.01,2013-04-07 23:14:00,
2013-04-07 18:19:00,64.3,57.7,29.72,South,178,14.0,24.0,79,0.00,,OVC019,0.00,37.95,VWS V14.01,2013-04-07 23:19:00,
2013-04-07 18:25:00,64.3,57.7,29.72,South,175,17.0,20.0,79,0.00,,OVC019,0.00,36.80,VWS V14.01,2013-04-07 23:25:00,
2013-04-07 18:30:00,64.5,57.8,29.72,South,171,6.0,19.0,79,0.00,,OVC019,0.00,32.20,VWS V14.01,2013-04-07 23:30:00,
2013-04-07 18:35:00,64.5,57.8,29.72,South,173,17.0,23.0,79,0.00,,OVC019,0.00,26.45,VWS V14.01,2013-04-07 23:35:00,
2013-04-07 18:40:00,64.5,57.8,29.72,SSW,196,13.0,27.0,79,0.00,,OVC019,0.00,28.75,VWS V14.01,2013-04-07 23:40:00,
2013-04-07 18:45:00,64.5,57.8,29.72,South,175,14.0,18.0,79,0.00,,OVC019,0.00,24.15,VWS V14.01,2013-04-07 23:45:00,
2013-04-07 18:50:00,64.5,57.8,29.72,South,179,10.0,20.0,79,0.00,,OVC019,0.00,21.85,VWS V14.01,2013-04-07 23:50:00,
2013-04-07 18:55:00,64.6,58.0,29.72,SSE,168,12.0,25.0,79,0.00,,OVC019,0.00,21.85,VWS V14.01,2013-04-07 23:55:00,
2013-04-07 19:00:00,64.6,58.0,29.71,SSW,198,10.0,20.0,79,0.00,,OVC019,0.00,18.40,VWS V14.01,2013-04-08 00:00:00,
2013-04-07 19:05:00,64.6,58.0,29.71,SSW,205,6.0,21.0,79,0.00,,OVC019,0.00,18.40,VWS V14.01,2013-04-08 00:05:00,
2013-04-07 19:10:00,64.6,58.0,29.71,South,175,7.0,22.0,79,0.00,,OVC019,0.00,21.85,VWS V14.01,2013-04-08 00:10:00,
2013-04-07 19:15:00,64.6,57.6,29.71,South,188,5.0,19.0,78,0.00,,OVC019,0.00,18.40,VWS V14.01,2013-04-08 00:15:00,
2013-04-07 19:20:00,64.8,57.8,29.71,South,182,2.0,14.0,78,0.00,,OVC019,0.00,12.65,VWS V14.01,2013-04-08 00:20:00,
2013-04-07 19:25:00,64.8,57.8,29.71,South,190,6.0,19.0,78,0.00,,OVC019,0.00,8.05,VWS V14.01,2013-04-08 00:25:00,
2013-04-07 19:30:00,64.8,57.8,29.72,SSE,157,1.0,20.0,78,0.00,,OVC019,0.00,5.75,VWS V14.01,2013-04-08 00:30:00,
2013-04-07 19:35:00,64.8,57.8,29.72,South,173,5.0,16.0,78,0.00,,OVC023,0.00,5.75,VWS V14.01,2013-04-08 00:35:00,
2013-04-07 19:40:00,64.8,57.8,29.72,South,170,0.0,15.0,78,0.00,,OVC023,0.00,0.00,VWS V14.01,2013-04-08 00:40:00,
2013-04-07 19:45:00,64.8,57.8,29.72,South,191,10.0,21.0,78,0.00,,OVC023,0.00,0.00,VWS V14.01,2013-04-08 00:45:00,
2013-04-07 19:50:00,64.8,57.8,29.72,South,186,0.0,12.0,78,0.00,,OVC023,0.00,0.00,VWS V14.01,2013-04-08 00:50:00,
2013-04-07 19:55:00,64.8,57.8,29.72,SE,138,0.0,15.0,78,0.00,,OVC023,0.00,0.00,VWS V14.01,2013-04-08 00:55:00,
2013-04-07 20:00:00,64.8,57.8,29.72,SSE,154,0.0,15.0,78,0.00,,OVC023,0.00,0.00,VWS V14.01,2013-04-08 01:00:00,
2013-04-07 20:05:00,64.8,57.8,29.72,SW,217,4.0,13.0,78,0.00,,OVC023,0.00,0.00,VWS V14.01,2013-04-08 01:05:00,
2013-04-07 20:10:00,64.8,57.8,29.72,SSE,161,11.0,14.0,78,0.00,,OVC023,0.00,0.00,VWS V14.01,2013-04-08 01:10:00,
2013-04-07 20:15:00,64.8,57.8,29.73,South,189,10.0,14.0,78,0.00,,OVC023,0.00,0.00,VWS V14.01,2013-04-08 01:15:00,
2013-04-07 20:20:00,64.8,57.8,29.73,South,186,6.0,14.0,78,0.00,,OVC023,0.00,0.00,VWS V14.01,2013-04-08 01:20:00,
2013-04-07 20:25:00,64.8,57.8,29.73,South,188,7.0,15.0,78,0.00,,OVC023,0.00,0.00,VWS V14.01,2013-04-08 01:25:00,
2013-04-07 20:30:00,64.8,57.8,29.74,South,190,7.0,12.0,78,0.00,,OVC023,0.00,0.00,VWS V14.01,2013-04-08 01:30:00,
2013-04-07 20:35:00,64.8,57.8,29.74,SSE,155,4.0,16.0,78,0.00,,OVC023,0.00,0.00,VWS V14.01,2013-04-08 01:35:00,
2013-04-07 20:40:00,64.9,57.9,29.74,SSW,193,8.0,12.0,78,0.00,,OVC023,0.00,0.00,VWS V14.01,2013-04-08 01:40:00,
2013-04-07 20:45:00,64.9,57.9,29.73,South,174,11.0,13.0,78,0.00,,OVC023,0.00,0.00,VWS V14.01,2013-04-08 01:45:00,
2013-04-07 20:50:00,64.9,57.5,29.73,SSE,164,6.0,12.0,77,0.00,,OVC023,0.00,0.00,VWS V14.01,2013-04-08 01:50:00,
2013-04-07 20:55:00,64.9,57.5,29.73,South,169,6.0,16.0,77,0.00,,OVC023,0.00,0.00,VWS V14.01,2013-04-08 01:55:00,
2013-04-07 21:00:00,64.9,57.5,29.73,South,184,7.0,13.0,77,0.00,,OVC023,0.00,0.00,VWS V14.01,2013-04-08 02:00:00,
2013-04-07 21:05:00,64.9,57.5,29.73,South,182,5.0,15.0,77,0.00,,OVC037,0.00,0.00,VWS V14.01,2013-04-08 02:05:00,
2013-04-07 21:10:00,64.9,57.5,29.73,South,175,0.0,11.0,77,0.00,,OVC037,0.00,0.00,VWS V14.01,2013-04-08 02:10:00,
2013-04-07 21:15:00,64.9,57.5,29.74,South,171,16.0,19.0,77,0.00,,OVC037,0.00,0.00,VWS V14.01,2013-04-08 02:15:00,
2013-04-07 21:20:00,64.8,57.4,29.74,SSE,167,5.0,16.0,77,0.00,,OVC037,0.00,0.00,VWS V14.01,2013-04-08 02:20:00,
2013-04-07 21:25:00,64.8,57.4,29.74,SSE,162,4.0,11.0,77,0.00,,OVC037,0.00,0.00,VWS V14.01,2013-04-08 02:25:00,
2013-04-07 21:30:00,64.8,57.4,29.75,South,184,4.0,12.0,77,0.00,,OVC037,0.00,0.00,VWS V14.01,2013-04-08 02:30:00,
2013-04-07 21:35:00,64.8,57.4,29.75,SSE,162,6.0,9.0,77,0.00,,OVC037,0.00,0.00,VWS V14.01,2013-04-08 02:35:00,
2013-04-07 21:40:00,64.8,57.4,29.75,South,186,0.0,12.0,77,0.00,,OVC037,0.00,0.00,VWS V14.01,2013-04-08 02:40:00,
2013-04-07 21:45:00,64.8,57.4,29.75,South,182,0.0,0.0,77,0.00,,OVC037,0.00,0.00,VWS V14.01,2013-04-08 02:45:00,
2013-04-07 21:50:00,64.6,57.2,29.75,South,184,0.0,0.0,77,0.00,,OVC037,0.00,0.00,VWS V14.01,2013-04-08 02:50:00,
2013-04-07 21:55:00,64.6,57.6,29.75,South,170,4.0,7.0,78,0.00,,OVC037,0.00,0.00,VWS V14.01,2013-04-08 02:55:00,
2013-04-07 22:00:00,64.5,57.5,29.75,South,173,0.0,0.0,78,0.00,,OVC034,0.00,0.00,VWS V14.01,2013-04-08 03:00:00,
2013-04-07 22:06:00,64.5,57.5,29.75,SSE,164,5.0,7.0,78,0.00,,OVC034,0.00,0.00,VWS V14.01,2013-04-08 03:06:00,
2013-04-07 22:11:00,64.5,57.5,29.75,South,171,5.0,7.0,78,0.00,,OVC034,0.00,0.00,VWS V14.01,2013-04-08 03:11:00,
2013-04-07 22:16:00,64.3,57.3,29.75,South,171,0.0,6.0,78,0.00,,OVC034,0.00,0.00,VWS V14.01,2013-04-08 03:16:00,
2013-04-07 22:21:00,64.3,57.3,29.75,South,182,0.0,5.0,78,0.00,,OVC034,0.00,0.00,VWS V14.01,2013-04-08 03:21:00,
2013-04-07 22:27:00,64.1,57.1,29.75,SSE,162,5.0,10.0,78,0.00,,OVC034,0.00,0.00,VWS V14.01,2013-04-08 03:27:00,
2013-04-07 22:32:00,64.0,57.0,29.75,South,173,0.0,0.0,78,0.00,,OVC034,0.00,0.00,VWS V14.01,2013-04-08 03:32:00,
2013-04-07 22:37:00,64.0,57.0,29.75,South,173,2.0,5.0,78,0.00,,OVC034,0.00,0.00,VWS V14.01,2013-04-08 03:37:00,
2013-04-07 22:42:00,63.8,56.8,29.75,SSE,167,0.0,8.0,78,0.00,,OVC034,0.00,0.00,VWS V14.01,2013-04-08 03:42:00,
2013-04-07 22:47:00,63.8,57.2,29.75,SSE,168,0.0,6.0,79,0.00,,OVC034,0.00,0.00,VWS V14.01,2013-04-08 03:47:00,
2013-04-07 22:52:00,63.7,57.1,29.75,South,169,0.0,2.0,79,0.00,,OVC034,0.00,0.00,VWS V14.01,2013-04-08 03:52:00,
2013-04-07 22:57:00,63.7,57.1,29.75,SSE,163,0.0,0.0,79,0.00,,OVC034,0.00,0.00,VWS V14.01,2013-04-08 03:57:00,
2013-04-07 23:00:00,63.7,57.1,29.75,SSE,161,0.0,5.0,79,0.00,,OVC034,0.00,0.00,VWS V14.01,2013-04-08 04:00:00,
2013-04-07 23:01:00,63.7,57.1,29.75,SSE,163,6.0,6.0,79,0.00,,OVC043,0.00,0.00,VWS V14.01,2013-04-08 04:01:00,
2013-04-07 23:06:00,63.5,56.9,29.75,SSE,165,0.0,0.0,79,0.00,,OVC043,0.00,0.00,VWS V14.01,2013-04-08 04:06:00,
2013-04-07 23:11:00,63.5,56.9,29.75,South,174,0.0,4.0,79,0.00,,OVC043,0.00,0.00,VWS V14.01,2013-04-08 04:11:00,
2013-04-07 23:16:00,63.5,56.9,29.75,SSE,163,0.0,9.0,79,0.00,,OVC043,0.00,0.00,VWS V14.01,2013-04-08 04:16:00,
2013-04-07 23:21:00,63.3,56.7,29.75,South,173,14.0,14.0,79,0.00,,OVC043,0.00,0.00,VWS V14.01,2013-04-08 04:21:00,
2013-04-07 23:26:00,63.3,56.7,29.75,SSE,165,6.0,6.0,79,0.00,,OVC043,0.00,0.00,VWS V14.01,2013-04-08 04:26:00,
2013-04-07 23:31:00,63.3,56.7,29.75,SSE,165,0.0,0.0,79,0.00,,OVC043,0.00,0.00,VWS V14.01,2013-04-08 04:31:00,
2013-04-07 23:36:00,63.2,56.6,29.75,SSE,155,1.0,6.0,79,0.00,,OVC043,0.00,0.00,VWS V14.01,2013-04-08 04:36:00,
2013-04-07 23:41:00,63.2,56.6,29.75,SSE,160,1.0,1.0,79,0.00,,OVC043,0.00,0.00,VWS V14.01,2013-04-08 04:41:00,
2013-04-07 23:46:00,63.2,56.9,29.75,South,177,0.0,3.0,80,0.00,,OVC043,0.00,0.00,VWS V14.01,2013-04-08 04:46:00,
2013-04-07 23:51:00,63.2,56.6,29.75,SSE,166,2.0,6.0,79,0.00,,OVC043,0.00,0.00,VWS V14.01,2013-04-08 04:51:00,
2013-04-07 23:56:00,63.0,56.7,29.75,SSE,163,0.0,0.0,80,0.00,,OVC043,0.00,0.00,VWS V14.01,2013-04-08 04:56:00,